Home > Weather > West Covina > Past weeks

Flag for USA Past Weather in West Covina, California, USA — Yesterday and Last 2 Weeks

Now
78 °F

Sunny.


Feels Like: 80 °F
Forecast: 68 / 87 °F
Wind: 8 mph from South

Location: Fullerton Municipal Airport

Current Time: Jun 30, 2016 at 12:26:19 PM

Latest Report: Jun 30, 2016 at 11:53 AM


Visibility: 10 mi

Pressure: 29.87 "Hg

Humidity: 56%

Dew Point: 61 °F

Location of West CovinaLocation

Past Weather in West Covina — Graph

°F

West Covina Temperature Yesterday

Maximum temperature yesterday: 86 °F (at 11:53 AM)
Minimum temperature yesterday: 68 °F (at 3:53 AM)
Average temperature yesterday: 76 °F

High & Low Weather Summary for the Past Weeks

 TemperatureHumidityPressure
High108 °F (Jun 20, 1:53 PM)94% (Jun 22, 3:53 AM)30.03 "Hg (Jun 22, 3:53 AM)
Low59 °F (Jun 16, 4:53 AM)6% (Jun 20, 5:53 PM)29.79 "Hg (Jun 20, 5:53 PM)
Average76 °F57%29.91 "Hg
* Reported Jun 15 10:53 AM — Jun 30 10:53 AM, West Covina, Weather by CustomWeather, © 2016

Note: Actual official high and low records may vary slightly from our data, if they occured in-between our weather recording intervals... More about our weather records

Advertising

West Covina Weather History for the Previous 24 Hours

Scroll right to see more
 ConditionsComfort  
Time TempWeatherWind HumidityBarometerVisibility
10:53 AM
Thu, Jun 30
77 °FSunny.6 mph58%29.88 "Hg10 mi
9:53 AM76 °FSunny.6 mph62%29.87 "Hg10 mi
8:53 AM74 °FPassing clouds.6 mph67%29.87 "Hg9 mi
7:53 AM72 °FOvercast.No wind71%29.87 "Hg8 mi
6:53 AM70 °FPartly sunny.3 mph76%29.85 "Hg8 mi
5:53 AM70 °FOvercast.No wind76%29.85 "Hg9 mi
4:53 AM70 °FPassing clouds.No wind76%29.83 "Hg9 mi
3:53 AM70 °FOvercast.No wind76%29.83 "Hg10 mi
2:53 AM69 °FOvercast.3 mph79%29.84 "Hg10 mi
1:53 AM69 °FOvercast.3 mph79%29.85 "Hg10 mi
12:53 AM70 °FOvercast.5 mph79%29.85 "Hg9 mi
11:53 PM
Wed, Jun 29
69 °FPassing clouds.3 mph81%29.86 "Hg8 mi
10:53 PM70 °FClear.7 mph79%29.87 "Hg9 mi
9:53 PM71 °FClear.6 mph73%29.86 "Hg10 mi
8:53 PM74 °FSunny.5 mph64%29.83 "Hg10 mi
7:53 PM78 °FSunny.8 mph56%29.81 "Hg10 mi
6:53 PM84 °FSunny.3 mph46%29.81 "Hg10 mi
5:53 PM85 °FSunny.5 mph46%29.81 "Hg10 mi
4:53 PM85 °FSunny.9 mph46%29.82 "Hg10 mi
3:53 PM86 °FSunny.8 mph43%29.82 "Hg10 mi
2:53 PM85 °FSunny.6 mph42%29.85 "Hg10 mi
1:53 PM84 °FWarm.8 mph45%29.87 "Hg10 mi
12:53 PM86 °FSunny.9 mph45%29.88 "Hg10 mi
Weather by CustomWeather, © 2016

See weather overviewHow to use our weather pages